Location: Unspecified
(0.0000°N, 0.0000°E)
Time: 08:22:07
(UTC+00:00)

Envisat - Pass Details

Date: 15 September 2021
Orbit: 764 x 766 km, 98.2° (Epoch: 17 September)

Event Time Altitude Azimuth Distance (km) Brightness Sun altitude
Rises 05:21:06 0° 354° (N) 3,213 6.2 -8.5°
Reaches altitude 10° 05:23:35 10° 345° (NNW) 2,290 5.4 -7.9°
Maximum altitude 05:28:04 33° 282° (WNW) 1,273 3.7 -6.8°
Drops below altitude 10° 05:32:35 10° 219° (SW) 2,300 5.1 -5.7°
Sets 05:35:06 0° 209° (SSW) 3,229 5.9 -5.0°
